[[{"header":{"parameterUnit":"m.s-1","parameterCategory":1,"la1":30.2991,"la2":30.254,"lo1":-89.0895,"lo2":-89.0444,"dy":0.0017,"dx":0.0017,"nx":28,"ny":28,"refTime":"2023-10-08T03:00:00:Z","depth":0,"parameterNumber":2,"parameterNumberName":"U-component_of_WINDS"},"data":[0,0,0,0,0,0,0,0,0,0,0,0,0,0,0,0,0,0,0,0,0,0,0,0,0,0,0,0,0,0,0,0,0,0,0,0,0,0,0,0,0,0,0,0,0,0,0,0,0,0,0,0,0,0,0,0,0,0,-0.9601,-0.9603,0,-0.9727,-0.9728,-0.973,-0.9805,-0.9805,-0.9806,-0.9806,-0.9932,-0.9935,-0.9938,0,0,0,0,0,0,0,0,0,0,0,0,0,-0.9425,-0.9428,-0.9601,-0.9603,-0.9604,-0.9727,-0.9728,-0.973,-0.9805,-0.9805,-0.9806,-0.9806,-0.9931,-0.9934,-0.9938,0,0,0,0,0,0,0,0,0,0,0,0,0,-0.9521,-0.9429,-0.9601,-0.9657,-0.9663,-0.9726,-0.9728,-0.973,-0.9805,-0.9805,-0.9806,-0.9806,-0.993,-0.9934,-0.9938,-0.9955,0,0,-0.9952,-0.9954,0,0,0,0,0,0,0,0,-0.9515,-0.9527,-0.9647,-0.9653,-0.966,-0.9751,-0.9712,-0.9806,-0.9805,-0.9751,-0.9806,-0.9807,-0.9871,-0.988,-0.9903,-0.9961,-0.9967,-0.9953,-0.9955,-0.9957,-0.9959,0,0,0,0,0,0,0,-0.9509,-0.9522,-0.9651,-0.9649,-0.9657,-0.9675,-0.9689,-0.973,-0.9806,-0.9756,-0.9761,-0.9775,-0.9875,-0.9898,-0.9906,-0.9969,-0.9953,-0.9957,-0.9959,-0.9961,-1.0048,-1.0048,0,0,0,0,0,0,-0.9493,-0.9516,-0.9647,-0.9655,-0.9588,-0.9677,-0.9693,-0.9721,-0.9806,-0.982,-0.9775,-0.9778,-0.989,-0.9901,-0.9911,-0.9936,-0.9957,-0.9962,-0.9964,-1.0048,-1.0048,-1.0047,0,0,0,0,0,0,-0.9489,-0.9504,-0.9642,-0.9587,-0.9606,-0.968,-0.971,-0.9723,-0.9747,-0.9821,-0.9834,-0.9785,-0.9891,-0.9904,-0.9944,-0.9942,-0.9964,-0.9968,-1.0049,-1.0048,-1.0048,-0.9987,0,0,0,0,0,0,-0.9484,-0.9503,-0.951,-0.9587,-0.9609,-0.9673,-0.971,-0.9725,-0.9755,-0.9761,-0.9834,-0.9846,-0.9892,-0.9937,-0.9948,-0.9948,-0.9971,-1.0049,-1.0049,-1.0048,-0.999,-0.9985,-0.998,0,0,0,0,0,-0.9477,-0.9487,-0.951,-0.9525,-0.962,-0.9673,-0.9686,-0.9739,-0.9754,-0.9762,-0.981,-0.9844,-0.994,-0.994,-0.9954,-0.9955,-1.005,-1.0049,-1.0048,-0.9992,-0.9986,-0.998,0,0,0,0,0,0,-0.9407,-0.9498,-0.9525,-0.956,-0.9608,-0.9686,-0.9697,-0.9731,-0.9775,-0.9779,-0.9843,-0.9859,-0.9892,-0.9928,-0.9926,-0.9976,-0.9999,-1.0001,-0.9952,-0.9946,-0.9942,-0.9932,-0.9975,0,0,0,0,0,-0.9396,-0.9433,-0.951,-0.9534,-0.9557,-0.9623,-0.9648,-0.9685,-0.9738,-0.9758,-0.9809,-0.9857,-0.9899,-0.9925,-0.9967,-0.9996,-1.0012,-1.0003,-0.9999,-0.9994,-0.9995,-1.0013,-1.0009,-1.0044,-1.0044,-1.0045,0,0,-0.9373,-0.9427,-0.9446,-0.9521,-0.9563,-0.9598,-0.9639,-0.9675,-0.9702,-0.9763,-0.9804,-0.9843,-0.9902,-0.9936,-0.9953,-0.9967,-0.9989,-0.9993,-0.9989,-0.9992,-1.0011,-1.0008,-1.0005,-1.0044,-1.0044,-1.0044,0,0,-0.9349,-0.9394,-0.9419,-0.946,-0.9524,-0.9568,-0.9573,-0.9646,-0.9675,-0.9717,-0.9764,-0.9796,-0.9866,-0.9907,-0.9936,-0.9928,-0.9961,-0.994,-0.9915,-0.9932,-0.9929,-0.9927,-0.9923,-0.9922,-0.9941,-0.994,-0.994,0,-0.9312,-0.9368,-0.9427,-0.946,-0.9492,-0.955,-0.9575,-0.9613,-0.9686,-0.9706,-0.972,-0.981,-0.9853,-0.9898,-0.9896,-0.9918,-0.9926,-0.9932,-0.9925,-0.9923,-0.9922,-0.992,-0.9918,-0.9937,-0.9938,-0.9938,-0.9938,0,-0.9319,-0.9357,-0.937,-0.944,-0.9473,-0.9502,-0.9565,-0.9591,-0.9625,-0.9668,-0.971,-0.9765,-0.9819,-0.9833,-0.9866,-0.9882,-0.9888,-0.9913,-0.9936,-0.9915,-0.9913,-0.9913,-0.9933,-0.9934,-0.9935,-0.9936,0,0,-0.9253,-0.9357,-0.936,-0.9393,-0.9468,-0.9498,-0.953,-0.9584,-0.9605,-0.9654,-0.9682,-0.974,-0.9764,-0.9797,-0.9836,-0.9851,-0.9841,-0.9874,-0.9876,-0.9865,-0.9861,-0.9842,-0.984,-0.9864,-0.9864,-0.9864,-0.9856,0,-0.924,-0.93,-0.9354,-0.9395,-0.9431,-0.9487,-0.9515,-0.9563,-0.9604,-0.964,-0.9685,-0.9725,-0.9753,-0.9774,-0.9791,-0.9838,-0.9841,-0.984,-0.9889,-0.989,-0.9872,-0.9839,-0.9819,-0.9808,-0.9856,-0.9856,-0.9856,0,-0.9231,-0.9279,-0.9323,-0.9395,-0.9412,-0.9436,-0.949,-0.9524,-0.958,-0.9609,-0.9647,-0.9688,-0.9724,-0.9745,-0.9794,-0.9793,-0.9816,-0.9843,-0.9844,-0.985,-0.9871,-0.9843,-0.9806,-0.9804,-0.9856,-0.9856,-0.9856,0,-0.9178,-0.9253,-0.9289,-0.9316,-0.9401,-0.9416,-0.9452,-0.9509,-0.9538,-0.9586,-0.9605,-0.9656,-0.9683,-0.9721,-0.9775,-0.9785,-0.9819,-0.9844,-0.9843,-0.9841,-0.9846,-0.9845,-0.9812,-0.9863,-0.9863,-0.9863,-0.9863,0,-0.9157,-0.9181,-0.9267,-0.9289,-0.9318,-0.938,-0.9407,-0.9448,-0.9498,-0.9529,-0.9581,-0.9609,-0.9679,-0.9714,-0.9757,-0.9791,-0.9804,-0.9827,-0.9838,-0.9822,-0.9819,-0.9837,-0.9839,-0.9863,-0.9863,-0.9863,-0.9863,0,-0.9101,-0.916,-0.9203,-0.928,-0.93,-0.9318,-0.9384,-0.9407,-0.9452,-0.949,-0.9502,-0.9571,-0.9616,-0.9674,-0.9737,-0.9766,-0.9795,-0.9812,-0.9776,-0.9782,-0.9777,-0.9777,-0.9754,-0.9754,-0.9805,-0.9805,-0.9804,0,-0.9083,-0.9103,-0.9183,-0.9208,-0.9242,-0.9282,-0.9312,-0.9374,-0.9404,-0.947,-0.9485,-0.9535,-0.9577,-0.9646,-0.9702,-0.975,-0.9768,-0.9757,-0.9776,-0.9759,-0.9767,-0.9765,-0.9767,-0.9752,-0.9751,-0.975,-0.975,0,-0.9044,-0.9073,-0.9115,-0.9168,-0.9203,-0.9247,-0.9293,-0.9311,-0.9382,-0.9413,-0.946,-0.9493,-0.9558,-0.9606,-0.9662,-0.9699,-0.9736,-0.9744,-0.9746,-0.9729,-0.9707,-0.9718,-0.9762,-0.9744,-0.9744,-0.9745,-0.9745,-0.9745,-0.9007,-0.9028,-0.9087,-0.9133,-0.9175,-0.9217,-0.9243,-0.9291,-0.9332,-0.939,-0.9424,-0.947,-0.9526,-0.9606,-0.9641,-0.9677,-0.9691,-0.9694,-0.9695,-0.9695,-0.9689,-0.9702,-0.9688,-0.9688,-0.9688,-0.9688,-0.9689,0,-0.897,-0.9012,-0.9053,-0.9117,-0.9153,-0.9186,-0.924,-0.9267,-0.9307,-0.9357,-0.9398,-0.9452,-0.95,-0.9559,-0.961,-0.9628,-0.9646,-0.9639,-0.9638,-0.9646,-0.9674,-0.9667,-0.9624,-0.9624,-0.9624,-0.9624,-0.9624,-0.9624,-0.8955,-0.8992,-0.9027,-0.9086,-0.9127,-0.9173,-0.9201,-0.924,-0.928,-0.9339,-0.9379,-0.9418,-0.9472,-0.9527,-0.9572,-0.9588,-0.9604,-0.9592,-0.9613,-0.9638,-0.9644,-0.9649,-0.9643,-0.9595,-0.9595,-0.9582,-0.9581,-0.9581]},{"header":{"parameterUnit":"m.s-1","parameterCategory":1,"la1":30.2991,"la2":30.254,"lo1":-89.0895,"lo2":-89.0444,"dy":0.0017,"dx":0.0017,"nx":28,"ny":28,"refTime":"2023-10-08T03:00:00:Z","depth":0,"parameterNumber":3,"parameterNumberName":"V-component_of_WINDS"},"data":[0,0,0,0,0,0,0,0,0,0,0,0,0,0,0,0,0,0,0,0,0,0,0,0,0,0,0,0,0,0,0,0,0,0,0,0,0,0,0,0,0,0,0,0,0,0,0,0,0,0,0,0,0,0,0,0,0,0,-1.6307,-1.6306,0,-1.6285,-1.6285,-1.6285,-1.6249,-1.6249,-1.6248,-1.6247,-1.6227,-1.6227,-1.6227,0,0,0,0,0,0,0,0,0,0,0,0,0,-1.6319,-1.6319,-1.6307,-1.6306,-1.6306,-1.6285,-1.6285,-1.6284,-1.6249,-1.6249,-1.6248,-1.6247,-1.6227,-1.6227,-1.6227,0,0,0,0,0,0,0,0,0,0,0,0,0,-1.6307,-1.6319,-1.6307,-1.6286,-1.6284,-1.6285,-1.6285,-1.6284,-1.625,-1.6249,-1.6248,-1.6247,-1.6227,-1.6227,-1.6227,-1.6247,0,0,-1.6227,-1.6227,0,0,0,0,0,0,0,0,-1.6308,-1.6307,-1.6289,-1.6287,-1.6285,-1.6269,-1.6281,-1.6272,-1.625,-1.6263,-1.6247,-1.6246,-1.6242,-1.624,-1.6239,-1.6246,-1.6245,-1.6227,-1.6227,-1.6227,-1.6227,0,0,0,0,0,0,0,-1.6309,-1.6307,-1.6298,-1.6289,-1.6287,-1.6278,-1.6275,-1.6279,-1.6258,-1.6262,-1.6259,-1.6257,-1.624,-1.6239,-1.6238,-1.6245,-1.6227,-1.6227,-1.6227,-1.6227,-1.6267,-1.6268,0,0,0,0,0,0,-1.6312,-1.6308,-1.6299,-1.6297,-1.6294,-1.6279,-1.6276,-1.6275,-1.6258,-1.6254,-1.6258,-1.6255,-1.6239,-1.6238,-1.6237,-1.6259,-1.6227,-1.6227,-1.6227,-1.6266,-1.6267,-1.6268,0,0,0,0,0,0,-1.6313,-1.6312,-1.63,-1.6302,-1.63,-1.628,-1.6279,-1.6275,-1.6273,-1.6255,-1.6251,-1.626,-1.6238,-1.6237,-1.6245,-1.6258,-1.6227,-1.6227,-1.6265,-1.6267,-1.6268,-1.6304,0,0,0,0,0,0,-1.6313,-1.6312,-1.6319,-1.6303,-1.63,-1.6307,-1.628,-1.6275,-1.6273,-1.627,-1.6256,-1.6252,-1.6237,-1.6245,-1.6245,-1.6257,-1.6228,-1.6264,-1.6266,-1.6267,-1.6301,-1.6306,-1.631,0,0,0,0,0,-1.6314,-1.6331,-1.632,-1.6319,-1.6308,-1.6308,-1.6307,-1.6288,-1.6275,-1.6282,-1.627,-1.6253,-1.6256,-1.6246,-1.6245,-1.6258,-1.6263,-1.6265,-1.6267,-1.6299,-1.6305,-1.631,0,0,0,0,0,0,-1.635,-1.6328,-1.6316,-1.6328,-1.632,-1.6302,-1.6311,-1.6296,-1.6292,-1.6289,-1.6267,-1.6264,-1.6275,-1.6267,-1.6256,-1.6277,-1.6257,-1.6259,-1.6281,-1.6287,-1.6291,-1.6293,-1.6228,0,0,0,0,0,-1.6359,-1.6361,-1.6341,-1.6354,-1.635,-1.6331,-1.6331,-1.6317,-1.6308,-1.6305,-1.6294,-1.6286,-1.6286,-1.6286,-1.6284,-1.63,-1.6296,-1.6309,-1.6313,-1.6317,-1.6319,-1.6327,-1.6332,-1.6276,-1.6276,-1.6276,0,0,-1.6379,-1.6367,-1.6369,-1.6361,-1.6353,-1.6355,-1.6329,-1.6332,-1.6334,-1.6306,-1.6312,-1.6304,-1.6294,-1.6306,-1.631,-1.63,-1.6334,-1.632,-1.6323,-1.6323,-1.633,-1.6335,-1.634,-1.6277,-1.6277,-1.6277,0,0,-1.6415,-1.6406,-1.6415,-1.6408,-1.6397,-1.6384,-1.6386,-1.6371,-1.6364,-1.6369,-1.6348,-1.635,-1.6349,-1.6343,-1.634,-1.6374,-1.6358,-1.6374,-1.6398,-1.6406,-1.641,-1.6414,-1.6426,-1.6431,-1.6376,-1.6376,-1.6376,0,-1.6441,-1.6443,-1.6422,-1.6427,-1.6424,-1.6398,-1.6407,-1.6401,-1.639,-1.6389,-1.6377,-1.6376,-1.6367,-1.6377,-1.6385,-1.6384,-1.6386,-1.6375,-1.6411,-1.6415,-1.6418,-1.6429,-1.6434,-1.6378,-1.6378,-1.6378,-1.6378,0,-1.6475,-1.6476,-1.6485,-1.6474,-1.6472,-1.6479,-1.646,-1.6461,-1.6447,-1.6436,-1.6442,-1.6431,-1.6427,-1.6428,-1.6415,-1.6436,-1.643,-1.6415,-1.6395,-1.6426,-1.6436,-1.644,-1.6381,-1.638,-1.638,-1.6379,0,0,-1.6534,-1.6511,-1.6515,-1.6509,-1.6495,-1.6496,-1.6502,-1.6497,-1.6498,-1.6491,-1.6495,-1.6495,-1.6481,-1.6478,-1.6464,-1.6471,-1.6498,-1.6455,-1.6454,-1.6463,-1.652,-1.6531,-1.6536,-1.6487,-1.6488,-1.6489,-1.6521,0,-1.6567,-1.6575,-1.6557,-1.6569,-1.6571,-1.6546,-1.6551,-1.6543,-1.6532,-1.6532,-1.652,-1.652,-1.6502,-1.65,-1.6505,-1.6493,-1.6509,-1.6491,-1.6491,-1.6492,-1.6495,-1.6542,-1.6554,-1.6585,-1.6524,-1.6525,-1.6526,0,-1.6607,-1.6602,-1.6615,-1.6599,-1.6599,-1.6603,-1.6597,-1.6597,-1.6588,-1.6579,-1.6575,-1.6559,-1.6564,-1.6544,-1.655,-1.6539,-1.6538,-1.6532,-1.6533,-1.6532,-1.6511,-1.6543,-1.6594,-1.6599,-1.6532,-1.6531,-1.6531,0,-1.6649,-1.6645,-1.6652,-1.6648,-1.663,-1.6634,-1.6627,-1.6616,-1.6614,-1.6609,-1.6607,-1.6603,-1.6601,-1.6598,-1.6581,-1.6568,-1.659,-1.6569,-1.6583,-1.6584,-1.6589,-1.6589,-1.6641,-1.6588,-1.6588,-1.6588,-1.6588,0,-1.6688,-1.6697,-1.667,-1.6675,-1.6684,-1.6662,-1.6672,-1.6662,-1.6653,-1.6655,-1.6634,-1.6637,-1.6614,-1.6614,-1.6601,-1.6609,-1.6608,-1.6601,-1.6598,-1.6603,-1.6604,-1.6603,-1.66,-1.6589,-1.6589,-1.6589,-1.6589,0,-1.6736,-1.6719,-1.6725,-1.6707,-1.6702,-1.671,-1.6695,-1.6698,-1.6686,-1.6689,-1.6689,-1.667,-1.6669,-1.6652,-1.6648,-1.6639,-1.6651,-1.6644,-1.6655,-1.6652,-1.6668,-1.6667,-1.6721,-1.6727,-1.6671,-1.6671,-1.6672,0,-1.6762,-1.6768,-1.6751,-1.6751,-1.6744,-1.6744,-1.6742,-1.6721,-1.672,-1.6709,-1.6714,-1.6711,-1.6708,-1.6708,-1.6694,-1.6691,-1.6683,-1.6702,-1.6682,-1.6688,-1.6683,-1.6683,-1.6684,-1.6707,-1.6707,-1.6708,-1.6708,0,-1.6811,-1.6802,-1.6799,-1.6793,-1.6791,-1.6786,-1.6779,-1.6781,-1.6758,-1.6758,-1.6756,-1.6754,-1.6749,-1.6747,-1.6741,-1.6733,-1.6717,-1.6715,-1.6718,-1.6724,-1.673,-1.6727,-1.6666,-1.6714,-1.6713,-1.6713,-1.6712,-1.6712,-1.6849,-1.6853,-1.6841,-1.6839,-1.6832,-1.6826,-1.6828,-1.6816,-1.6814,-1.6808,-1.6796,-1.6797,-1.6787,-1.6777,-1.6771,-1.6772,-1.6762,-1.6767,-1.6768,-1.6769,-1.6772,-1.673,-1.6771,-1.677,-1.677,-1.677,-1.677,0,-1.6896,-1.6887,-1.6885,-1.6876,-1.6875,-1.6859,-1.6851,-1.6851,-1.6851,-1.6843,-1.684,-1.6838,-1.6836,-1.6822,-1.6818,-1.6821,-1.6813,-1.6821,-1.682,-1.6819,-1.6781,-1.6779,-1.6827,-1.6827,-1.6827,-1.6827,-1.6827,-1.6827,-1.6921,-1.6927,-1.6916,-1.6919,-1.691,-1.691,-1.6906,-1.6901,-1.6894,-1.6893,-1.6891,-1.6881,-1.6871,-1.6866,-1.6863,-1.6859,-1.6858,-1.6868,-1.6862,-1.6827,-1.6822,-1.6816,-1.6814,-1.6868,-1.6868,-1.6899,-1.6899,-1.69]}]]